MST,Max TemperatureF,Mean TemperatureF,Min TemperatureF,Max Dew PointF,MeanDew PointF,Min DewpointF,Max Humidity, Mean Humidity, Min Humidity, Max Sea Level PressureIn, Mean Sea Level PressureIn, Min Sea Level PressureIn, Max VisibilityMiles, Mean VisibilityMiles, Min VisibilityMiles, Max Wind SpeedMPH, Mean Wind SpeedMPH, Max Gust SpeedMPH,PrecipitationIn, CloudCover, Events, WindDirDegrees
2013-11-1,55,43,31,38,33,29,92,67,41,30.30,30.24,30.13,10,10,10,9,3,12,0.00,2,,76
2013-11-2,56,44,31,35,30,27,89,64,38,30.29,30.13,29.89,10,10,10,14,6,17,0.00,0,,106
2013-11-3,62,48,33,37,29,21,89,58,27,29.92,29.77,29.61,10,10,10,33,7,46,T,3,,356
2013-11-4,43,35,26,31,24,15,92,66,39,30.02,29.97,29.91,10,9,2,22,4,25,0.01,4,Snow,334
2013-11-5,42,34,25,31,23,11,100,64,28,30.38,30.18,30.03,10,8,2,14,4,16,0.01,4,Snow,319
2013-11-6,45,34,22,21,17,13,75,52,29,30.55,30.49,30.38,10,10,10,14,6,16,0.00,1,,92
2013-11-7,52,39,25,30,23,20,81,56,30,30.58,30.40,30.18,10,10,10,10,4,12,0.00,0,,114
2013-11-8,57,42,27,28,26,23,85,55,25,30.17,30.11,30.02,10,10,10,10,4,14,0.00,0,,51
2013-11-9,58,43,27,30,27,24,85,57,28,30.24,30.19,30.09,10,10,10,12,4,14,0.00,0,,87
2013-11-10,60,45,29,28,26,23,78,51,24,30.35,30.26,30.19,10,10,10,15,5,16,0.00,0,,82
2013-11-11,61,45,29,28,25,23,78,51,23,30.41,30.35,30.27,10,10,10,12,5,14,0.00,0,,110
2013-11-12,62,47,31,29,26,24,72,48,23,30.55,30.45,30.38,10,10,10,16,6,17,0.00,0,,111
2013-11-13,52,40,28,30,25,22,75,53,30,30.42,30.28,30.12,10,10,10,12,2,13,0.00,0,,92
2013-11-14,56,43,29,30,26,22,78,52,26,30.18,30.02,29.78,10,10,9,16,4,18,0.00,1,Snow,106
2013-11-15,58,42,26,35,26,20,76,53,30,29.78,29.66,29.52,10,10,9,24,8,29,T,3,Rain-Snow,350
2013-11-16,47,39,30,36,33,26,89,74,58,29.69,29.60,29.53,10,10,5,17,6,22,0.04,6,Rain,78
2013-11-17,53,42,30,35,30,27,96,69,41,30.17,30.01,29.73,10,10,10,13,4,14,0.00,2,,54
2013-11-18,56,43,29,29,27,25,85,59,32,30.31,30.19,30.09,10,10,10,15,5,18,0.00,0,,103
2013-11-19,47,38,29,34,29,25,78,62,45,30.08,29.97,29.89,10,10,10,16,5,20,T,5,Rain,110
2013-11-20,48,39,29,39,35,29,100,81,61,29.96,29.89,29.81,10,10,5,8,2,10,0.05,5,Rain,319
2013-11-21,48,41,33,42,37,22,100,78,56,30.26,29.99,29.87,10,6,2,20,5,24,0.28,8,Rain,51
2013-11-22,38,34,30,31,28,20,100,77,54,30.37,30.29,30.25,10,5,1,14,3,20,0.42,6,Snow,126
2013-11-23,37,34,30,33,31,30,100,95,89,30.34,30.27,30.18,10,6,1,10,2,12,0.24,8,Rain-Snow,129
2013-11-24,39,35,31,36,33,30,100,93,85,30.20,30.15,30.08,10,4,0,15,6,18,T,8,Fog-Rain,334
2013-11-25,46,37,28,34,30,28,100,77,53,30.41,30.26,30.12,10,6,0,13,6,14,0.00,2,Fog,67
2013-11-26,46,37,27,33,28,24,92,71,49,30.50,30.43,30.38,10,10,10,13,6,15,0.00,0,,115
2013-11-27,44,35,25,33,28,24,92,73,53,30.42,30.33,30.22,10,10,5,9,3,12,0.00,0,,48
2013-11-28,39,34,28,32,30,28,100,91,82,30.33,30.28,30.23,10,9,4,14,5,17,0.00,6,,326
2013-11-29,36,34,31,31,30,29,100,88,75,30.45,30.40,30.32,10,8,2,8,3,9,0.00,8,,321
2013-11-30,37,35,33,30,29,28,89,80,70,30.47,30.41,30.36,10,10,10,10,4,13,0.00,8,,124